QPF
0.00 0.00 0.00 0.00 0.00 0.00 0.00 0.00 0.00 0.00 0.00 0.00 0.00 0.00 0.00 0.00 0.00 0.00 0.00 0.00 0.00 0.00 0.00 0.00 0.00 0.00 0.00 0.00 0.00 0.00 0.00 0.00 0.00 0.00 0.00 0.00 0.00 0.00 0.00 0.01 0.01 0.01 0.01 0.00 0.00 0.00 0.00 0.00 0.00
0.00 0.00 0.00 0.00 0.00 0.00 0.00 0.00 0.00 0.00 0.00 0.00 0.00 0.00 0.00 0.00 0.00 0.00 0.00 0.00 0.00 0.00 0.00 0.00 0.00 0.00 0.00 0.00 0.00 0.00 0.00 0.00 0.00 0.00 0.00 0.00 0.00 0.00 0.01 0.01 0.01 0.01 0.00 0.00 0.00 0.00 0.00 0.00 0.00
0.00 0.00 0.00 0.00 0.00 0.00 0.00 0.00 0.00 0.00 0.00 0.00 0.00 0.00 0.00 0.00 0.00 0.00 0.00 0.00 0.00 0.00 0.00 0.00 0.00 0.00 0.00 0.00 0.00 0.00 0.00 0.00 0.00 0.00 0.00 0.00 0.00 0.00 0.01 0.01 0.01 0.00 0.00 0.00 0.00 0.00 0.00 0.00 0.00
0.00 0.00 0.00 0.00 0.00 0.00 0.00 0.00 0.00 0.00 0.00 0.00 0.00 0.00 0.00 0.00 0.00 0.00 0.00 0.00 0.00 0.00 0.00 0.00 0.00 0.00 0.00 0.00 0.00 0.00 0.00 0.00 0.00 0.00 0.00 0.01 0.00 0.00 0.00 0.00 0.00 0.00 0.00 0.00 0.00 0.00 0.00 0.00 0.00
0.00 0.00 0.00 0.00 0.00 0.00 0.00 0.00 0.00 0.00 0.00 0.00 0.00 0.00 0.00 0.00 0.00 0.00 0.00 0.00 0.00 0.00 0.00 0.00 0.00 0.00 0.00 0.00 0.00 0.00 0.00 0.00 0.00 0.01 0.01 0.01 0.00 0.00 0.00 0.00 0.00 0.00 0.00 0.00 0.00 0.00 0.00 0.00 0.00
0.00 0.00 0.00 0.00 0.00 0.00 0.00 0.00 0.00 0.00 0.00 0.00 0.00 0.00 0.00 0.00 0.00 0.00 0.00 0.00 0.00 0.00 0.00 0.00 0.00 0.00 0.00 0.00 0.00 0.00 0.00 0.00 0.00 0.01 0.01 0.01 0.01 0.00 0.00 0.00 0.00 0.00 0.00 0.00 0.00 0.00 0.00 0.00 0.00
0.00 0.00 0.00 0.00 0.00 0.00 0.00 0.00 0.00 0.00 0.00 0.00 0.00 0.00 0.00 0.00 0.00 0.00 0.00 0.00 0.00 0.00 0.00 0.00 0.00 0.00 0.00 0.00 0.00 0.00 0.00 0.00 0.00 0.01 0.01 0.01 0.01 0.00 0.00 0.00 0.00 0.00 0.00 0.00 0.00 0.00 0.00 0.00 0.00
0.00 0.00 0.00 0.00 0.00 0.00 0.00 0.00 0.00 0.00 0.00 0.00 0.00 0.00 0.00 0.00 0.00 0.00 0.00 0.00 0.00 0.00 0.00 0.00 0.00 0.00 0.00 0.00 0.00 0.00 0.00 0.00 0.00 0.01 0.01 0.01 0.00 0.00 0.00 0.00 0.00 0.00 0.00 0.00 0.00 0.00 0.00 0.00 0.00
0.00 0.00 0.00 0.00 0.00 0.00 0.00 0.00 0.00 0.00 0.00 0.00 0.00 0.00 0.00 0.00 0.00 0.00 0.00 0.00 0.00 0.00 0.00 0.00 0.00 0.00 0.00 0.00 0.00 0.00 0.00 0.00 0.01 0.01 0.01 0.00 0.00 0.00 0.00 0.00 0.00 0.00 0.00 0.00 0.00 0.00 0.00 0.00 0.00
0.00 0.00 0.00 0.00 0.00 0.00 0.00 0.00 0.00 0.00 0.00 0.00 0.00 0.00 0.00 0.00 0.00 0.00 0.00 0.00 0.00 0.00 0.00 0.00 0.00 0.00 0.00 0.00 0.00 0.00 0.00 0.00 0.00 0.01 0.01 0.01 0.00 0.00 0.00 0.00 0.00 0.00 0.00 0.00 0.00 0.00 0.00 0.00 0.00
0.00 0.00 0.00 0.00 0.00 0.00 0.00 0.00 0.00 0.00 0.00 0.00 0.00 0.00 0.00 0.00 0.00 0.00 0.00 0.00 0.00 0.00 0.00 0.00 0.00 0.00 0.00 0.00 0.00 0.00 0.00 0.00 0.00 0.00 0.00 0.00 0.00 0.00 0.00 0.00 0.00 0.00 0.00 0.00 0.00 0.00 0.00 0.00 0.00
0.00 0.00 0.00 0.00 0.00 0.00 0.00 0.00 0.00 0.00 0.00 0.00 0.00 0.00 0.00 0.00 0.00 0.00 0.00 0.00 0.00 0.00 0.00 0.00 0.00 0.00 0.00 0.00 0.00 0.00 0.00 0.00 0.00 0.00 0.00 0.00 0.00 0.00 0.00 0.00 0.00 0.00 0.00 0.00 0.00 0.00 0.00 0.00 0.00
0.00 0.00 0.00 0.00 0.00 0.00 0.00 0.00 0.00 0.00 0.00 0.00 0.00 0.00 0.00 0.00 0.00 0.00 0.00 0.00 0.00 0.00 0.00 0.00 0.00 0.00 0.00 0.00 0.00 0.00 0.00 0.00 0.00 0.00 0.00 0.01 0.01 0.00 0.00 0.00 0.00 0.00 0.00 0.00 0.00 0.00 0.00 0.00 0.00
0.00 0.00 0.00 0.00 0.00 0.00 0.00 0.00 0.00 0.00 0.00 0.00 0.00 0.00 0.00 0.00 0.00 0.00 0.00 0.00 0.00 0.00 0.00 0.00 0.00 0.00 0.00 0.00 0.00 0.00 0.00 0.00 0.00 0.01 0.01 0.01 0.01 0.01 0.00 0.00 0.00 0.00 0.00 0.00 0.00 0.00 0.00 0.00 0.00
0.00 0.00 0.00 0.00 0.00 0.00 0.00 0.00 0.00 0.00 0.00 0.00 0.00 0.00 0.00 0.00 0.00 0.00 0.00 0.00 0.00 0.00 0.00 0.00 0.00 0.00 0.00 0.00 0.00 0.00 0.00 0.00 0.00 0.01 0.01 0.02 0.02 0.01 0.00 0.00 0.00 0.00 0.00 0.00 0.00 0.00 0.00 0.00 0.00
0.00 0.00 0.00 0.00 0.00 0.00 0.00 0.00 0.00 0.00 0.00 0.00 0.00 0.00 0.00 0.00 0.00 0.00 0.00 0.00 0.00 0.00 0.00 0.00 0.00 0.00 0.00 0.00 0.00 0.00 0.00 0.00 0.00 0.01 0.01 0.02 0.02 0.01 0.01 0.00 0.00 0.00 0.00 0.00 0.00 0.00 0.00 0.00 0.00
0.00 0.00 0.00 0.00 0.00 0.00 0.00 0.00 0.00 0.00 0.00 0.00 0.00 0.00 0.00 0.00 0.00 0.00 0.00 0.00 0.00 0.00 0.00 0.00 0.00 0.00 0.00 0.00 0.00 0.00 0.00 0.00 0.00 0.00 0.01 0.01 0.01 0.01 0.01 0.00 0.00 0.00 0.00 0.00 0.00 0.00 0.00 0.00 0.00
0.00 0.00 0.00 0.00 0.00 0.00 0.00 0.00 0.00 0.00 0.00 0.00 0.00 0.00 0.00 0.00 0.00 0.00 0.00 0.00 0.00 0.00 0.00 0.00 0.00 0.00 0.00 0.00 0.00 0.00 0.00 0.00 0.00 0.00 0.00 0.01 0.01 0.00 0.00 0.00 0.00 0.00 0.00 0.00 0.00 0.00 0.00 0.00 0.00
0.00 0.00 0.00 0.00 0.00 0.00 0.00 0.00 0.00 0.00 0.00 0.00 0.00 0.00 0.00 0.00 0.00 0.00 0.00 0.00 0.00 0.00 0.00 0.00 0.00 0.00 0.00 0.00 0.00 0.00 0.00 0.00 0.00 0.00 0.00 0.00 0.00 0.00 0.00 0.00 0.00 0.00 0.00 0.00 0.00 0.00 0.00 0.00 0.00
0.00 0.00 0.00 0.00 0.00 0.00 0.00 0.00 0.00 0.00 0.00 0.00 0.00 0.00 0.00 0.00 0.00 0.00 0.00 0.00 0.00 0.00 0.00 0.00 0.00 0.00 0.00 0.00 0.00 0.00 0.00 0.00 0.00 0.00 0.00 0.00 0.00 0.00 0.00 0.00 0.00 0.00 0.00 0.00 0.00 0.00 0.00 0.00 0.00
0.00 0.00 0.00 0.00 0.00 0.00 0.00 0.00 0.00 0.00 0.00 0.00 0.00 0.00 0.00 0.00 0.00 0.00 0.00 0.00 0.00 0.00 0.00 0.00 0.00 0.00 0.00 0.00 0.00 0.00 0.00 0.00 0.00 0.00 0.00 0.00 0.00 0.00 0.00 0.00 0.00 0.00 0.00 0.00 0.00 0.00 0.00 0.00 0.00
0.00 0.00 0.00 0.00 0.00 0.00 0.00 0.00 0.00 0.00 0.00 0.00 0.00 0.00 0.00 0.00 0.00 0.00 0.00 0.00 0.00 0.00 0.00 0.00 0.00 0.00 0.00 0.00 0.00 0.00 0.00 0.00 0.00 0.00 0.00 0.00 0.00 0.00 0.00 0.00 0.00 0.00 0.00 0.00 0.00 0.00 0.00 0.00 0.00
0.00 0.00 0.00 0.00 0.00 0.00 0.00 0.00 0.00 0.00 0.00 0.00 0.00 0.00 0.00 0.00 0.00 0.00 0.00 0.00 0.00 0.00 0.00 0.00 0.00 0.00 0.00 0.00 0.00 0.00 0.00 0.00 0.00 0.00 0.00 0.00 0.00 0.00 0.00 0.00 0.00 0.00 0.00 0.00 0.00 0.00 0.00 0.00 0.00
0.00 0.00 0.00 0.00 0.00 0.00 0.00 0.00 0.00 0.00 0.00 0.00 0.00 0.00 0.00 0.00 0.00 0.00 0.00 0.00 0.00 0.00 0.00 0.00 0.00 0.00 0.00 0.00 0.00 0.00 0.00 0.00 0.00 0.00 0.00 0.00 0.00 0.00 0.00 0.00 0.00 0.00 0.00 0.00 0.00 0.00 0.00 0.00 0.00
0.00 0.00 0.00 0.00 0.00 0.00 0.00 0.00 0.00 0.00 0.00 0.00 0.00 0.00 0.00 0.00 0.00 0.00 0.00 0.00 0.00 0.00 0.00 0.00 0.00 0.00 0.00 0.00 0.00 0.00 0.00 0.00 0.00 0.00 0.00 0.00 0.00 0.00 0.00 0.00 0.00 0.00 0.00 0.00 0.00 0.00 0.00 0.00 0.00
0.00 0.00 0.00 0.00 0.00 0.00 0.00 0.00 0.00 0.00 0.00 0.00 0.00 0.00 0.00 0.00 0.00 0.00 0.00 0.00 0.00 0.00 0.00 0.00 0.00 0.00 0.00 0.00 0.00 0.00 0.00 0.00 0.00 0.00 0.00 0.00 0.00 0.00 0.00 0.00 0.00 0.00 0.00 0.00 0.00 0.00 0.00 0.00 0.00
0.00 0.00 0.00 0.00 0.00 0.00 0.00 0.00 0.00 0.00 0.00 0.00 0.00 0.00 0.00 0.00 0.00 0.00 0.00 0.00 0.00 0.00 0.00 0.00 0.00 0.00 0.00 0.00 0.00 0.00 0.00 0.00 0.00 0.00 0.00 0.00 0.00 0.00 0.00 0.00 0.00 0.00 0.00 0.00 0.00 0.00 0.00 0.00 0.00
0.00 0.00 0.00 0.00 0.00 0.00 0.00 0.00 0.00 0.00 0.00 0.00 0.00 0.00 0.00 0.00 0.00 0.00 0.00 0.00 0.00 0.00 0.00 0.00 0.00 0.00 0.00 0.00 0.00 0.00 0.00 0.00 0.00 0.00 0.00 0.00 0.00 0.00 0.00 0.00 0.00 0.00 0.00 0.00 0.00 0.00 0.00 0.00 0.00
0.00 0.00 0.00 0.00 0.00 0.00 0.00 0.00 0.00 0.00 0.00 0.00 0.00 0.00 0.00 0.00 0.00 0.00 0.00 0.00 0.00 0.00 0.00 0.00 0.00 0.00 0.00 0.00 0.00 0.00 0.00 0.00 0.00 0.00 0.00 0.00 0.00 0.00 0.00 0.00 0.00 0.00 0.00 0.00 0.00 0.00 0.00 0.00 0.00
0.00 0.00 0.00 0.01 0.01 0.01 0.02 0.01 0.00 0.00 0.00 0.00 0.00 0.00 0.00 0.00 0.00 0.00 0.00 0.00 0.00 0.00 0.00 0.00 0.00 0.00 0.00 0.00 0.00 0.00 0.00 0.00 0.00 0.00 0.00 0.00 0.00 0.00 0.00 0.00 0.00 0.00 0.00 0.00 0.00 0.00 0.00 0.00 0.00
MSLP
1015.50 1016.22 1017.12 1018.07 1018.94 1019.63 1020.06 1020.19 1020.06 1019.73 1019.28 1018.80 1018.36 1017.99 1017.69 1017.44 1017.20 1016.94 1016.66 1016.37 1016.10 1015.91 1015.83 1015.89 1016.08 1016.38 1016.74 1017.10 1017.43 1017.70 1017.91 1018.06 1018.21 1018.36 1018.55 1018.77 1019.01 1019.24 1019.45 1019.60 1019.70 1019.75 1019.79 1019.84 1019.91 1020.01 1020.11 1020.21 1020.27
1016.01 1016.87 1017.83 1018.76 1019.53 1020.05 1020.24 1020.13 1019.77 1019.23 1018.63 1018.06 1017.59 1017.23 1016.97 1016.78 1016.61 1016.42 1016.21 1015.98 1015.77 1015.63 1015.61 1015.72 1015.96 1016.29 1016.68 1017.06 1017.41 1017.69 1017.91 1018.09 1018.26 1018.45 1018.67 1018.93 1019.19 1019.43 1019.64 1019.79 1019.89 1019.95 1019.99 1020.04 1020.12 1020.22 1020.33 1020.43 1020.50
1016.64 1017.57 1018.53 1019.38 1020.00 1020.31 1020.29 1019.95 1019.38 1018.69 1017.99 1017.38 1016.91 1016.60 1016.40 1016.27 1016.17 1016.04 1015.87 1015.69 1015.54 1015.45 1015.47 1015.62 1015.90 1016.26 1016.66 1017.06 1017.40 1017.69 1017.91 1018.10 1018.29 1018.49 1018.72 1018.98 1019.25 1019.50 1019.71 1019.87 1019.97 1020.04 1020.09 1020.16 1020.26 1020.38 1020.51 1020.61 1020.68
1017.36 1018.30 1019.20 1019.92 1020.37 1020.47 1020.24 1019.72 1019.00 1018.22 1017.48 1016.88 1016.44 1016.18 1016.04 1015.96 1015.90 1015.80 1015.67 1015.52 1015.39 1015.34 1015.40 1015.59 1015.89 1016.27 1016.68 1017.07 1017.41 1017.69 1017.90 1018.09 1018.27 1018.47 1018.70 1018.95 1019.22 1019.47 1019.67 1019.84 1019.95 1020.05 1020.13 1020.24 1020.36 1020.51 1020.66 1020.78 1020.86
1018.10 1019.00 1019.80 1020.37 1020.63 1020.55 1020.15 1019.50 1018.70 1017.89 1017.17 1016.60 1016.22 1016.00 1015.90 1015.85 1015.80 1015.71 1015.58 1015.44 1015.32 1015.29 1015.38 1015.58 1015.90 1016.29 1016.70 1017.09 1017.41 1017.67 1017.87 1018.04 1018.21 1018.40 1018.62 1018.87 1019.12 1019.37 1019.58 1019.75 1019.90 1020.02 1020.15 1020.30 1020.47 1020.65 1020.82 1020.96 1021.05
1018.79 1019.61 1020.28 1020.69 1020.79 1020.55 1020.04 1019.32 1018.51 1017.72 1017.06 1016.55 1016.23 1016.06 1015.98 1015.92 1015.85 1015.73 1015.57 1015.41 1015.30 1015.27 1015.36 1015.58 1015.91 1016.30 1016.70 1017.07 1017.38 1017.62 1017.81 1017.97 1018.13 1018.32 1018.53 1018.78 1019.03 1019.27 1019.49 1019.68 1019.85 1020.02 1020.19 1020.38 1020.59 1020.81 1021.01 1021.17 1021.28
1019.35 1020.07 1020.59 1020.86 1020.82 1020.48 1019.91 1019.18 1018.41 1017.70 1017.12 1016.70 1016.44 1016.29 1016.21 1016.12 1016.00 1015.83 1015.63 1015.43 1015.29 1015.26 1015.34 1015.56 1015.88 1016.25 1016.64 1016.99 1017.29 1017.52 1017.71 1017.88 1018.05 1018.25 1018.47 1018.72 1018.98 1019.23 1019.46 1019.67 1019.87 1020.07 1020.28 1020.51 1020.75 1020.99 1021.22 1021.40 1021.52
1019.72 1020.32 1020.72 1020.86 1020.71 1020.32 1019.74 1019.06 1018.37 1017.76 1017.29 1016.96 1016.75 1016.63 1016.53 1016.41 1016.23 1016.00 1015.74 1015.50 1015.33 1015.26 1015.33 1015.52 1015.81 1016.16 1016.52 1016.85 1017.13 1017.37 1017.57 1017.76 1017.97 1018.19 1018.45 1018.72 1019.00 1019.26 1019.51 1019.74 1019.95 1020.18 1020.41 1020.67 1020.93 1021.19 1021.43 1021.62 1021.75
1019.90 1020.39 1020.67 1020.71 1020.49 1020.08 1019.52 1018.91 1018.33 1017.84 1017.48 1017.25 1017.11 1017.01 1016.91 1016.76 1016.53 1016.25 1015.94 1015.65 1015.43 1015.32 1015.34 1015.49 1015.73 1016.03 1016.34 1016.64 1016.91 1017.15 1017.38 1017.61 1017.86 1018.14 1018.44 1018.76 1019.06 1019.35 1019.62 1019.86 1020.09 1020.33 1020.58 1020.84 1021.11 1021.38 1021.62 1021.81 1021.94
1019.93 1020.32 1020.50 1020.45 1020.19 1019.77 1019.26 1018.73 1018.26 1017.89 1017.65 1017.51 1017.45 1017.40 1017.31 1017.16 1016.91 1016.60 1016.25 1015.92 1015.65 1015.48 1015.43 1015.50 1015.66 1015.88 1016.12 1016.38 1016.63 1016.87 1017.13 1017.41 1017.72 1018.06 1018.42 1018.79 1019.13 1019.45 1019.74 1019.99 1020.24 1020.48 1020.74 1021.01 1021.28 1021.54 1021.77 1021.96 1022.09
1019.89 1020.18 1020.27 1020.15 1019.86 1019.44 1018.96 1018.51 1018.14 1017.89 1017.76 1017.73 1017.76 1017.78 1017.75 1017.62 1017.39 1017.08 1016.71 1016.34 1016.02 1015.78 1015.64 1015.59 1015.64 1015.75 1015.91 1016.09 1016.31 1016.55 1016.83 1017.15 1017.52 1017.92 1018.34 1018.75 1019.14 1019.49 1019.80 1020.08 1020.34 1020.60 1020.86 1021.14 1021.41 1021.67 1021.90 1022.07 1022.19
1019.87 1020.08 1020.09 1019.91 1019.57 1019.14 1018.69 1018.29 1017.99 1017.84 1017.82 1017.91 1018.04 1018.16 1018.21 1018.16 1017.99 1017.70 1017.34 1016.94 1016.56 1016.23 1015.96 1015.79 1015.69 1015.67 1015.72 1015.82 1015.98 1016.21 1016.50 1016.85 1017.26 1017.71 1018.17 1018.62 1019.04 1019.42 1019.76 1020.07 1020.35 1020.64 1020.93 1021.22 1021.51 1021.77 1022.00 1022.17 1022.28
1019.96 1020.09 1020.02 1019.77 1019.38 1018.92 1018.47 1018.10 1017.86 1017.78 1017.87 1018.06 1018.32 1018.56 1018.73 1018.79 1018.70 1018.46 1018.11 1017.70 1017.24 1016.81 1016.41 1016.09 1015.84 1015.68 1015.60 1015.61 1015.71 1015.91 1016.19 1016.55 1016.98 1017.44 1017.92 1018.39 1018.83 1019.23 1019.59 1019.93 1020.26 1020.58 1020.91 1021.25 1021.57 1021.86 1022.10 1022.28 1022.39
1020.19 1020.25 1020.10 1019.77 1019.32 1018.82 1018.34 1017.98 1017.77 1017.76 1017.93 1018.24 1018.63 1019.01 1019.32 1019.49 1019.50 1019.33 1019.00 1018.56 1018.04 1017.49 1016.96 1016.49 1016.09 1015.80 1015.61 1015.53 1015.57 1015.73 1015.98 1016.33 1016.74 1017.19 1017.65 1018.10 1018.53 1018.93 1019.31 1019.69 1020.06 1020.44 1020.83 1021.23 1021.61 1021.95 1022.22 1022.42 1022.54
1020.53 1020.52 1020.30 1019.91 1019.39 1018.84 1018.33 1017.96 1017.78 1017.82 1018.07 1018.48 1018.99 1019.51 1019.96 1020.26 1020.36 1020.25 1019.94 1019.47 1018.87 1018.23 1017.58 1016.97 1016.46 1016.06 1015.79 1015.65 1015.64 1015.76 1015.98 1016.28 1016.65 1017.04 1017.45 1017.85 1018.23 1018.61 1018.99 1019.38 1019.80 1020.25 1020.71 1021.19 1021.63 1022.04 1022.36 1022.60 1022.74
1020.91 1020.84 1020.56 1020.11 1019.55 1018.95 1018.43 1018.05 1017.89 1017.97 1018.30 1018.81 1019.43 1020.08 1020.64 1021.05 1021.23 1021.17 1020.87 1020.36 1019.71 1018.98 1018.24 1017.55 1016.96 1016.50 1016.18 1016.02 1015.99 1016.08 1016.27 1016.52 1016.81 1017.11 1017.42 1017.73 1018.03 1018.35 1018.70 1019.10 1019.54 1020.04 1020.57 1021.12 1021.64 1022.11 1022.50 1022.77 1022.94
1021.21 1021.11 1020.79 1020.32 1019.74 1019.14 1018.61 1018.25 1018.11 1018.24 1018.63 1019.23 1019.95 1020.69 1021.35 1021.84 1022.08 1022.05 1021.75 1021.22 1020.52 1019.74 1018.95 1018.22 1017.60 1017.14 1016.83 1016.68 1016.66 1016.75 1016.90 1017.09 1017.29 1017.48 1017.67 1017.85 1018.04 1018.26 1018.55 1018.91 1019.35 1019.87 1020.45 1021.04 1021.63 1022.15 1022.59 1022.90 1023.10
1021.35 1021.23 1020.92 1020.46 1019.91 1019.34 1018.86 1018.54 1018.45 1018.63 1019.08 1019.74 1020.52 1021.33 1022.06 1022.59 1022.87 1022.86 1022.56 1022.02 1021.31 1020.51 1019.71 1018.99 1018.41 1017.99 1017.74 1017.64 1017.66 1017.75 1017.88 1018.02 1018.12 1018.19 1018.23 1018.26 1018.31 1018.42 1018.60 1018.89 1019.29 1019.79 1020.36 1020.97 1021.58 1022.13 1022.59 1022.94 1023.16
1021.28 1021.18 1020.91 1020.52 1020.04 1019.56 1019.16 1018.91 1018.89 1019.13 1019.63 1020.33 1021.15 1021.99 1022.74 1023.31 1023.60 1023.60 1023.31 1022.78 1022.08 1021.31 1020.55 1019.89 1019.38 1019.04 1018.88 1018.86 1018.93 1019.05 1019.17 1019.25 1019.26 1019.21 1019.11 1018.99 1018.89 1018.85 1018.91 1019.09 1019.40 1019.83 1020.35 1020.92 1021.50 1022.03 1022.49 1022.85 1023.09
1021.00 1020.96 1020.78 1020.50 1020.16 1019.81 1019.52 1019.37 1019.43 1019.72 1020.25 1020.97 1021.80 1022.64 1023.40 1023.96 1024.27 1024.27 1024.01 1023.51 1022.86 1022.15 1021.47 1020.90 1020.49 1020.26 1020.19 1020.25 1020.38 1020.53 1020.65 1020.68 1020.62 1020.47 1020.25 1019.99 1019.75 1019.57 1019.49 1019.54 1019.73 1020.04 1020.45 1020.93 1021.42 1021.89 1022.31 1022.63 1022.87
1020.59 1020.63 1020.59 1020.47 1020.29 1020.10 1019.95 1019.92 1020.05 1020.39 1020.93 1021.64 1022.45 1023.26 1023.99 1024.55 1024.85 1024.89 1024.67 1024.23 1023.67 1023.05 1022.47 1022.01 1021.70 1021.57 1021.59 1021.71 1021.89 1022.07 1022.18 1022.19 1022.07 1021.85 1021.54 1021.19 1020.84 1020.54 1020.33 1020.24 1020.28 1020.44 1020.70 1021.03 1021.40 1021.76 1022.08 1022.35 1022.55
1020.13 1020.30 1020.42 1020.47 1020.48 1020.46 1020.46 1020.54 1020.73 1021.09 1021.62 1022.29 1023.04 1023.81 1024.50 1025.04 1025.36 1025.44 1025.28 1024.94 1024.48 1023.97 1023.51 1023.15 1022.94 1022.88 1022.96 1023.13 1023.33 1023.51 1023.62 1023.62 1023.48 1023.23 1022.88 1022.48 1022.06 1021.67 1021.36 1021.15 1021.04 1021.04 1021.13 1021.29 1021.48 1021.69 1021.89 1022.07 1022.21
1019.75 1020.05 1020.33 1020.58 1020.76 1020.90 1021.03 1021.18 1021.42 1021.77 1022.26 1022.86 1023.55 1024.25 1024.90 1025.42 1025.77 1025.90 1025.83 1025.60 1025.26 1024.88 1024.53 1024.26 1024.12 1024.12 1024.22 1024.39 1024.59 1024.77 1024.87 1024.86 1024.73 1024.49 1024.15 1023.75 1023.31 1022.89 1022.51 1022.20 1021.96 1021.81 1021.72 1021.70 1021.72 1021.77 1021.82 1021.88 1021.94
1019.49 1019.93 1020.38 1020.78 1021.12 1021.38 1021.60 1021.80 1022.04 1022.36 1022.78 1023.30 1023.90 1024.54 1025.15 1025.66 1026.04 1026.25 1026.28 1026.17 1025.96 1025.71 1025.46 1025.28 1025.19 1025.19 1025.29 1025.45 1025.62 1025.77 1025.86 1025.87 1025.76 1025.56 1025.27 1024.90 1024.50 1024.09 1023.68 1023.31 1022.97 1022.69 1022.45 1022.27 1022.11 1022.00 1021.91 1021.84 1021.80
1019.40 1019.96 1020.53 1021.05 1021.49 1021.83 1022.09 1022.30 1022.51 1022.77 1023.12 1023.55 1024.08 1024.65 1025.22 1025.74 1026.16 1026.45 1026.59 1026.61 1026.53 1026.39 1026.25 1026.13 1026.07 1026.07 1026.15 1026.26 1026.39 1026.51 1026.59 1026.61 1026.54 1026.40 1026.17 1025.88 1025.54 1025.16 1024.76 1024.36 1023.97 1023.59 1023.24 1022.91 1022.62 1022.37 1022.15 1021.96 1021.82
1019.43 1020.08 1020.73 1021.31 1021.79 1022.15 1022.41 1022.59 1022.76 1022.96 1023.23 1023.59 1024.04 1024.56 1025.11 1025.65 1026.12 1026.49 1026.75 1026.88 1026.93 1026.90 1026.84 1026.78 1026.74 1026.74 1026.77 1026.84 1026.93 1027.02 1027.08 1027.11 1027.08 1027.00 1026.85 1026.63 1026.36 1026.03 1025.66 1025.25 1024.83 1024.39 1023.96 1023.54 1023.15 1022.79 1022.47 1022.19 1021.95
1019.56 1020.24 1020.90 1021.48 1021.94 1022.27 1022.48 1022.62 1022.73 1022.87 1023.08 1023.40 1023.81 1024.31 1024.86 1025.41 1025.94 1026.38 1026.73 1026.98 1027.13 1027.20 1027.22 1027.20 1027.19 1027.18 1027.19 1027.23 1027.28 1027.33 1027.39 1027.42 1027.42 1027.37 1027.28 1027.12 1026.90 1026.62 1026.27 1025.88 1025.44 1024.98 1024.51 1024.04 1023.60 1023.18 1022.79 1022.44 1022.12
1019.71 1020.38 1020.99 1021.50 1021.88 1022.13 1022.28 1022.36 1022.42 1022.53 1022.72 1023.02 1023.43 1023.93 1024.49 1025.08 1025.64 1026.15 1026.58 1026.91 1027.14 1027.29 1027.37 1027.41 1027.42 1027.43 1027.43 1027.44 1027.47 1027.51 1027.54 1027.57 1027.57 1027.55 1027.48 1027.35 1027.16 1026.89 1026.56 1026.17 1025.74 1025.27 1024.79 1024.31 1023.84 1023.39 1022.98 1022.58 1022.20
1019.89 1020.47 1020.97 1021.35 1021.61 1021.76 1021.82 1021.85 1021.90 1022.01 1022.21 1022.54 1022.97 1023.50 1024.09 1024.71 1025.30 1025.84 1026.31 1026.69 1026.98 1027.19 1027.32 1027.41 1027.46 1027.49 1027.51 1027.53 1027.55 1027.57 1027.59 1027.60 1027.60 1027.56 1027.48 1027.34 1027.14 1026.87 1026.53 1026.13 1025.69 1025.23 1024.75 1024.27 1023.81 1023.37 1022.95 1022.53 1022.12
1020.10 1020.56 1020.90 1021.11 1021.22 1021.25 1021.23 1021.22 1021.27 1021.42 1021.68 1022.06 1022.55 1023.12 1023.74 1024.37 1024.97 1025.51 1025.99 1026.38 1026.69 1026.93 1027.11 1027.24 1027.33 1027.40 1027.45 1027.49 1027.53 1027.55 1027.56 1027.56 1027.53 1027.46 1027.34 1027.16 1026.92 1026.61 1026.25 1025.83 1025.38 1024.91 1024.44 1023.98 1023.53 1023.10 1022.68 1022.25 1021.82
Thickness
5757 5759 5758 5748 5724 5699 5702 5713 5720 5724 5726 5733 5736 5732 5725 5721 5717 5716 5737 5742 5739 5735 5731 5727 5724 5722 5720 5718 5716 5714 5712 5710 5709 5707 5706 5706 5705 5705 5705 5705 5704 5704 5704 5704 5704 5704 5704 5705 5706
5757 5758 5750 5731 5704 5686 5698 5714 5719 5727 5733 5737 5737 5734 5729 5728 5735 5737 5740 5744 5742 5737 5732 5728 5725 5722 5720 5719 5716 5714 5712 5710 5708 5706 5705 5704 5703 5703 5703 5702 5701 5701 5700 5700 5700 5699 5699 5700 5701
5757 5755 5734 5715 5700 5692 5707 5718 5723 5731 5736 5736 5733 5734 5732 5732 5736 5738 5744 5745 5742 5737 5733 5729 5725 5722 5719 5717 5715 5714 5712 5710 5708 5706 5704 5703 5702 5701 5700 5700 5699 5698 5698 5697 5696 5696 5695 5696 5697
5751 5739 5724 5708 5710 5712 5720 5723 5729 5729 5731 5735 5733 5730 5734 5741 5742 5744 5746 5744 5740 5736 5733 5730 5726 5722 5718 5715 5713 5711 5710 5708 5707 5705 5704 5702 5701 5699 5698 5697 5696 5695 5695 5694 5693 5693 5692 5692 5693
5742 5724 5709 5698 5708 5721 5724 5730 5733 5726 5726 5728 5729 5726 5729 5738 5742 5743 5743 5742 5738 5735 5732 5729 5726 5722 5719 5716 5713 5710 5708 5706 5705 5703 5702 5700 5699 5697 5696 5694 5693 5692 5691 5691 5690 5689 5689 5689 5689
5724 5712 5693 5693 5707 5722 5726 5733 5731 5725 5722 5725 5725 5723 5727 5734 5737 5738 5739 5738 5736 5733 5731 5728 5725 5722 5719 5716 5713 5711 5708 5706 5704 5702 5700 5698 5696 5695 5693 5692 5691 5689 5688 5687 5686 5685 5685 5685 5685
5715 5701 5695 5702 5704 5716 5724 5731 5727 5722 5722 5725 5727 5720 5725 5731 5735 5736 5735 5735 5733 5731 5728 5727 5724 5722 5719 5717 5713 5711 5708 5706 5703 5701 5699 5697 5694 5692 5690 5689 5688 5687 5685 5684 5683 5681 5681 5681 5681
5717 5701 5701 5696 5701 5709 5720 5725 5724 5721 5721 5730 5729 5718 5721 5730 5733 5731 5730 5730 5729 5727 5726 5724 5723 5721 5719 5716 5713 5710 5708 5705 5702 5700 5697 5695 5693 5690 5688 5686 5684 5683 5682 5680 5679 5677 5677 5676 5676
5717 5692 5687 5699 5701 5705 5713 5715 5719 5721 5721 5721 5725 5724 5725 5728 5727 5725 5724 5723 5724 5723 5723 5722 5720 5718 5716 5714 5711 5709 5706 5703 5701 5698 5695 5693 5690 5687 5685 5682 5681 5679 5678 5676 5675 5673 5672 5671 5671
5702 5683 5694 5706 5708 5707 5708 5708 5710 5714 5709 5711 5714 5718 5720 5720 5719 5717 5716 5716 5719 5720 5721 5721 5719 5716 5713 5710 5708 5705 5702 5700 5697 5695 5692 5690 5687 5684 5681 5678 5676 5675 5673 5671 5670 5668 5667 5666 5666
5703 5690 5698 5705 5708 5708 5706 5705 5707 5705 5700 5706 5706 5708 5710 5710 5709 5709 5709 5710 5713 5716 5718 5718 5718 5716 5712 5709 5706 5702 5699 5696 5693 5691 5688 5685 5682 5680 5676 5673 5671 5669 5667 5666 5664 5662 5661 5660 5660
5699 5700 5702 5704 5706 5703 5703 5703 5701 5700 5703 5709 5706 5703 5701 5698 5696 5697 5699 5701 5703 5706 5708 5711 5713 5712 5710 5707 5704 5700 5696 5693 5690 5686 5683 5680 5677 5674 5671 5668 5666 5664 5661 5659 5657 5656 5655 5654 5654
5695 5697 5699 5700 5698 5698 5699 5695 5695 5697 5705 5702 5697 5692 5688 5685 5682 5684 5686 5689 5692 5695 5699 5703 5706 5707 5706 5704 5701 5697 5693 5689 5686 5682 5679 5676 5673 5670 5666 5662 5660 5658 5655 5652 5650 5648 5647 5646 5647
5692 5691 5692 5693 5693 5694 5692 5690 5689 5697 5703 5696 5686 5676 5671 5672 5672 5673 5675 5677 5679 5683 5688 5694 5699 5700 5700 5699 5696 5693 5689 5685 5681 5677 5674 5671 5669 5666 5662 5657 5654 5651 5648 5645 5643 5640 5639 5638 5638
5687 5682 5681 5685 5688 5689 5687 5682 5685 5697 5695 5685 5673 5664 5662 5660 5660 5659 5660 5662 5664 5670 5676 5683 5689 5693 5693 5692 5690 5687 5683 5679 5676 5672 5669 5666 5664 5661 5658 5653 5649 5646 5642 5638 5634 5631 5629 5628 5628
5672 5664 5660 5677 5684 5681 5676 5671 5688 5694 5686 5673 5659 5652 5651 5649 5646 5646 5648 5650 5654 5658 5664 5669 5675 5680 5682 5682 5679 5677 5674 5672 5669 5666 5663 5660 5658 5655 5651 5647 5644 5640 5636 5631 5626 5622 5619 5618 5617
5650 5644 5649 5663 5676 5672 5667 5664 5681 5687 5677 5659 5646 5641 5639 5636 5635 5634 5636 5638 5641 5645 5650 5656 5660 5664 5667 5668 5666 5664 5661 5659 5658 5656 5655 5652 5650 5647 5643 5640 5637 5632 5628 5624 5620 5615 5611 5608 5607
5636 5634 5640 5650 5663 5661 5656 5654 5664 5670 5665 5645 5633 5628 5627 5624 5621 5621 5623 5626 5629 5632 5637 5641 5645 5647 5650 5652 5651 5648 5646 5644 5643 5642 5641 5640 5639 5636 5634 5630 5627 5623 5619 5615 5611 5606 5602 5600 5597
5642 5636 5635 5641 5652 5646 5642 5642 5650 5656 5649 5633 5623 5618 5614 5611 5608 5608 5609 5612 5616 5619 5622 5623 5626 5627 5631 5632 5630 5629 5625 5624 5624 5624 5624 5624 5623 5621 5620 5618 5615 5612 5609 5606 5602 5597 5592 5588 5586
5632 5627 5626 5633 5641 5638 5634 5634 5638 5635 5629 5622 5611 5604 5599 5596 5595 5596 5596 5598 5601 5602 5604 5605 5606 5606 5608 5609 5609 5607 5606 5604 5604 5604 5605 5604 5605 5604 5602 5601 5600 5598 5597 5593 5590 5586 5582 5578 5575
5621 5619 5621 5622 5628 5629 5625 5621 5626 5612 5605 5600 5592 5587 5583 5581 5578 5579 5581 5582 5584 5585 5584 5586 5586 5587 5587 5588 5589 5589 5587 5584 5584 5582 5581 5582 5583 5584 5584 5584 5582 5581 5580 5579 5577 5575 5573 5569 5564
5613 5622 5619 5617 5609 5601 5609 5594 5612 5611 5593 5583 5573 5566 5562 5561 5561 5562 5562 5564 5564 5564 5565 5567 5567 5567 5566 5566 5565 5563 5559 5555 5553 5554 5556 5559 5561 5561 5562 5563 5564 5563 5562 5562 5561 5561 5559 5558 5555
5615 5619 5614 5609 5599 5589 5590 5586 5595 5596 5583 5568 5557 5551 5546 5543 5542 5542 5542 5542 5543 5544 5545 5546 5547 5547 5545 5544 5542 5539 5536 5533 5533 5535 5536 5536 5537 5538 5538 5539 5541 5542 5542 5543 5544 5544 5543 5543 5543
5610 5603 5592 5579 5577 5572 5582 5575 5584 5586 5584 5560 5545 5539 5534 5530 5527 5525 5523 5523 5523 5523 5524 5525 5525 5524 5523 5522 5519 5517 5513 5512 5512 5511 5510 5510 5512 5513 5514 5516 5517 5518 5520 5521 5523 5524 5525 5525 5526
5597 5581 5566 5564 5557 5561 5573 5569 5578 5567 5568 5556 5540 5526 5520 5516 5512 5510 5507 5505 5504 5502 5501 5501 5502 5500 5499 5499 5496 5494 5491 5489 5486 5485 5484 5484 5485 5486 5487 5489 5491 5494 5496 5499 5501 5502 5504 5505 5507
5581 5575 5559 5550 5546 5549 5559 5559 5562 5542 5541 5536 5525 5515 5510 5505 5500 5497 5493 5490 5487 5484 5481 5479 5478 5476 5475 5473 5471 5470 5468 5465 5463 5461 5459 5458 5458 5459 5461 5463 5466 5468 5471 5474 5477 5480 5481 5483 5485
5571 5565 5564 5547 5529 5525 5542 5551 5525 5527 5519 5514 5509 5503 5498 5494 5490 5485 5480 5475 5470 5467 5463 5460 5457 5454 5452 5450 5448 5445 5444 5441 5439 5437 5435 5434 5435 5436 5437 5438 5440 5443 5446 5449 5452 5455 5458 5461 5464
5569 5558 5537 5532 5518 5511 5529 5539 5540 5511 5507 5502 5497 5492 5487 5482 5477 5471 5466 5460 5455 5449 5445 5441 5437 5433 5430 5427 5425 5422 5420 5418 5416 5414 5412 5411 5411 5412 5413 5414 5416 5418 5420 5423 5426 5429 5433 5437 5442
5546 5543 5536 5522 5509 5495 5491 5522 5535 5519 5510 5498 5491 5485 5479 5472 5465 5458 5451 5445 5438 5432 5426 5421 5417 5413 5409 5406 5403 5400 5397 5395 5392 5390 5388 5387 5387 5388 5389 5390 5392 5394 5396 5398 5401 5403 5407 5412 5418
5537 5534 5523 5506 5497 5498 5491 5503 5520 5510 5500 5490 5482 5476 5467 5459 5450 5442 5435 5427 5420 5414 5408 5403 5397 5392 5388 5385 5381 5377 5374 5372 5369 5366 5364 5363 5362 5363 5363 5365 5368 5370 5373 5374 5376 5379 5382 5386 5393